Weather History for Chandler, OK

Change the Weather History Date:

Thursday, October 3, 2013

  Actual Average (KCUH) Record (KCUH)
Temperature  
Mean Temperature 81 °F -  
Max Temperature 91 °F 80 °F 97 °F (1951)
Min Temperature 71 °F 54 °F 39 °F (2014)
Cooling Degree Days 16    
Growing Degree Days 31 (Base 50)    
Moisture  
Dew Point 72 °F    
Average Humidity 79    
Maximum Humidity 100    
Minimum Humidity 49    
Precipitation  
Precipitation 0.00 in - - ()
Sea Level Pressure  
Sea Level Pressure 29.84 in    
Wind  
Wind Speed 11 mph (South)    
Max Wind Speed 18 mph    
Max Gust Speed 30 mph    
Visibility 10 miles    
Events      
Averages and records for this station are not official NWS values.
T = Trace of Precipitation, MM = Missing Value Source: NWS Daily Summary

Daily Weather History Graph

Daily Weather History Graph

Search for Another Location

Airport:

Trip Planner

Search our weather history database for the weather conditions in past years. The results will help you decide how hot, cold, wet, or windy it might be!

Date:

Astronomy

Oct. 03, 2013 Rise Set
Actual Time 7:24 AM CDT 7:07 PM CDT
Civil Twilight 6:58 AM CDT 7:33 PM CDT
Nautical Twilight 6:28 AM CDT 8:02 PM CDT
Astronomical Twilight 5:59 AM CDT 8:32 PM CDT
Moon 6:00 AM CDT (10/3) 6:16 PM CDT (10/3)
Length of Visible Light 12h 34m
Length of Day
11h 43m
Waning Crescent, 2% of the Moon is Illuminated
Oct 3
Waning Crescent
Oct 4
New
Oct 11
First Quarter
Oct 18
Full
Oct 26
Last Quarter

Hourly Weather History & Observations

Time (CDT) Temp. Heat Index Dew Point Humidity Pressure Visibility Wind Dir Wind Speed Gust Speed Precip Events Conditions
12:15 AM 73.4 °F - 71.6 °F 94% 29.90 in 10.0 mi SSE 9.2 mph - N/A   Clear
12:35 AM 73.4 °F - 71.6 °F 94% 29.90 in 10.0 mi South 5.8 mph - N/A   Clear
12:55 AM 73.4 °F - 71.6 °F 94% 29.89 in 10.0 mi South 6.9 mph - N/A   Clear
1:15 AM 73.4 °F - 73.4 °F 100% 29.89 in 10.0 mi South 6.9 mph - N/A   Clear
1:35 AM 73.4 °F - 73.4 °F 100% 29.89 in 10.0 mi South 6.9 mph - N/A   Clear
1:55 AM 73.4 °F - 73.4 °F 100% 29.88 in 10.0 mi South 8.1 mph - N/A   Clear
2:15 AM 73.4 °F - 73.4 °F 100% 29.88 in 10.0 mi South 8.1 mph - N/A   Clear
2:35 AM 73.4 °F - 73.4 °F 100% 29.88 in 10.0 mi South 8.1 mph - N/A   Clear
2:55 AM 73.4 °F - 73.4 °F 100% 29.87 in 10.0 mi South 10.4 mph - N/A   Clear
3:15 AM 73.4 °F - 73.4 °F 100% 29.87 in 10.0 mi South 10.4 mph 21.9 mph N/A   Clear
3:35 AM 73.4 °F - 73.4 °F 100% 29.86 in 10.0 mi South 9.2 mph 17.3 mph N/A   Clear
3:55 AM 73.4 °F - 73.4 °F 100% 29.86 in 10.0 mi South 10.4 mph 17.3 mph N/A   Clear
4:15 AM 73.4 °F - 73.4 °F 100% 29.86 in 10.0 mi South 11.5 mph - N/A   Scattered Clouds
4:35 AM 73.4 °F - 73.4 °F 100% 29.86 in 10.0 mi South 11.5 mph 16.1 mph N/A   Scattered Clouds
4:55 AM 73.4 °F - 73.4 °F 100% 29.87 in 10.0 mi South 11.5 mph 17.3 mph N/A   Mostly Cloudy
5:15 AM 73.4 °F - 73.4 °F 100% 29.87 in 10.0 mi South 9.2 mph - N/A   Scattered Clouds
5:35 AM 73.4 °F - 73.4 °F 100% 29.87 in 10.0 mi South 10.4 mph - N/A   Clear
5:55 AM 73.4 °F - 73.4 °F 100% 29.87 in 10.0 mi South 10.4 mph - N/A   Clear
6:15 AM 71.6 °F - 71.6 °F 100% 29.87 in 10.0 mi South 10.4 mph - N/A   Clear
6:35 AM 71.6 °F - 71.6 °F 100% 29.87 in 10.0 mi South 9.2 mph - N/A   Clear
6:55 AM 71.6 °F - 71.6 °F 100% 29.86 in 10.0 mi South 10.4 mph - N/A   Clear
7:15 AM 71.6 °F - 71.6 °F 100% 29.86 in 10.0 mi South 9.2 mph - N/A   Clear
7:35 AM 71.6 °F - 71.6 °F 100% 29.87 in 7.0 mi South 10.4 mph 16.1 mph N/A   Mostly Cloudy
7:55 AM 71.6 °F - 71.6 °F 100% 29.88 in 10.0 mi South 12.7 mph 17.3 mph N/A   Overcast
8:15 AM 73.4 °F - 73.4 °F 100% 29.88 in 10.0 mi South 10.4 mph 16.1 mph N/A   Overcast
8:35 AM 73.4 °F - 73.4 °F 100% 29.88 in 10.0 mi South 12.7 mph 17.3 mph N/A   Overcast
8:55 AM 75.2 °F - 73.4 °F 94% 29.88 in 10.0 mi South 10.4 mph 17.3 mph N/A   Overcast
9:15 AM 77.0 °F - 73.4 °F 89% 29.88 in 10.0 mi South 13.8 mph 18.4 mph N/A   Overcast
9:35 AM 77.0 °F - 73.4 °F 89% 29.88 in 10.0 mi South 13.8 mph 18.4 mph N/A   Overcast
9:55 AM 78.8 °F - 73.4 °F 83% 29.88 in 10.0 mi SSW 16.1 mph 20.7 mph N/A   Mostly Cloudy
10:15 AM 80.6 °F 85.4 °F 73.4 °F 79% 29.88 in 10.0 mi SSW 15.0 mph 23.0 mph N/A   Scattered Clouds
10:35 AM 80.6 °F 85.4 °F 73.4 °F 79% 29.88 in 7.0 mi SSW 16.1 mph 24.2 mph N/A   Mostly Cloudy
10:55 AM 82.4 °F 89.5 °F 75.2 °F 79% 29.87 in 10.0 mi South 13.8 mph 20.7 mph N/A   Scattered Clouds
11:15 AM 84.2 °F 92.3 °F 75.2 °F 74% 29.87 in 10.0 mi SSW 17.3 mph 24.2 mph N/A   Scattered Clouds
11:35 AM 84.2 °F 92.3 °F 75.2 °F 74% 29.87 in 10.0 mi SSW 18.4 mph 21.9 mph N/A   Scattered Clouds
11:55 AM 86.0 °F 95.1 °F 75.2 °F 70% 29.86 in 10.0 mi South 16.1 mph 24.2 mph N/A   Scattered Clouds
12:15 PM 86.0 °F 95.1 °F 75.2 °F 70% 29.85 in 10.0 mi SSW 15.0 mph 23.0 mph N/A   Scattered Clouds
12:35 PM 86.0 °F 93.4 °F 73.4 °F 66% 29.85 in 10.0 mi SSW 15.0 mph 23.0 mph N/A   Scattered Clouds
12:55 PM 87.8 °F 95.6 °F 73.4 °F 62% 29.85 in 10.0 mi SSW 16.1 mph 23.0 mph N/A   Scattered Clouds
1:15 PM 87.8 °F 95.6 °F 73.4 °F 62% 29.84 in 10.0 mi SSW 18.4 mph - N/A   Scattered Clouds
1:35 PM 89.6 °F 98.2 °F 73.4 °F 59% 29.83 in 10.0 mi South 16.1 mph 24.2 mph N/A   Scattered Clouds
1:55 PM 89.6 °F 98.2 °F 73.4 °F 59% 29.82 in 10.0 mi SSW 15.0 mph 20.7 mph N/A   Scattered Clouds
2:15 PM 87.8 °F 95.6 °F 73.4 °F 62% 29.81 in 10.0 mi SSW 17.3 mph 24.2 mph N/A   Mostly Cloudy
2:35 PM 89.6 °F 98.2 °F 73.4 °F 59% 29.81 in 10.0 mi South 16.1 mph 19.6 mph N/A   Mostly Cloudy
2:55 PM 91.4 °F 98.4 °F 71.6 °F 52% 29.80 in 10.0 mi SSW 17.3 mph 26.5 mph N/A   Scattered Clouds
3:15 PM 89.6 °F 96.2 °F 71.6 °F 55% 29.80 in 10.0 mi SSW 18.4 mph 29.9 mph N/A   Clear
3:35 PM 91.4 °F 98.4 °F 71.6 °F 52% 29.79 in 7.0 mi SSW 15.0 mph 26.5 mph N/A   Clear
3:55 PM 91.4 °F 98.4 °F 71.6 °F 52% 29.78 in 10.0 mi SSW 17.3 mph 24.2 mph N/A   Clear
4:15 PM 91.4 °F 98.4 °F 71.6 °F 52% 29.78 in 10.0 mi South 13.8 mph 23.0 mph N/A   Clear
4:35 PM 91.4 °F 96.8 °F 69.8 °F 49% 29.77 in 10.0 mi South 13.8 mph 26.5 mph N/A   Clear
4:55 PM 89.6 °F 94.7 °F 69.8 °F 52% 29.77 in 10.0 mi South 15.0 mph 25.3 mph N/A   Clear
5:15 PM 89.6 °F 96.2 °F 71.6 °F 55% 29.77 in 10.0 mi South 17.3 mph 26.5 mph N/A   Clear
5:35 PM 89.6 °F 94.7 °F 69.8 °F 52% 29.76 in 10.0 mi South 16.1 mph 25.3 mph N/A   Clear
5:55 PM 87.8 °F 93.8 °F 71.6 °F 58% 29.77 in 10.0 mi South 16.1 mph 20.7 mph N/A   Clear
6:15 PM 87.8 °F 93.8 °F 71.6 °F 58% 29.77 in 10.0 mi South 13.8 mph 19.6 mph N/A   Clear
6:35 PM 86.0 °F 91.8 °F 71.6 °F 62% 29.77 in 7.0 mi South 10.4 mph 18.4 mph N/A   Clear
6:55 PM 86.0 °F 90.4 °F 69.8 °F 58% 29.77 in 10.0 mi South 12.7 mph 18.4 mph N/A   Clear
7:15 PM 82.4 °F 87.2 °F 71.6 °F 70% 29.77 in 10.0 mi South 11.5 mph 17.3 mph N/A   Clear
7:35 PM 82.4 °F 87.2 °F 71.6 °F 70% 29.77 in 10.0 mi South 12.7 mph 16.1 mph N/A   Clear
7:55 PM 82.4 °F 87.2 °F 71.6 °F 70% 29.78 in 10.0 mi South 11.5 mph 16.1 mph N/A   Clear
8:15 PM 80.6 °F 84.6 °F 71.6 °F 74% 29.79 in 10.0 mi South 8.1 mph - N/A   Clear
8:35 PM 80.6 °F 83.9 °F 69.8 °F 70% 29.80 in 10.0 mi South 6.9 mph - N/A   Clear
8:55 PM 80.6 °F 83.9 °F 69.8 °F 70% 29.80 in 10.0 mi South 6.9 mph - N/A   Clear
9:15 PM 78.8 °F - 69.8 °F 74% 29.80 in 10.0 mi South 8.1 mph - N/A   Clear
9:35 PM 78.8 °F - 69.8 °F 74% 29.80 in 10.0 mi South 10.4 mph - N/A   Clear
9:55 PM 78.8 °F - 69.8 °F 74% 29.81 in 10.0 mi South 9.2 mph - N/A   Clear
10:15 PM 78.8 °F - 69.8 °F 74% 29.82 in 10.0 mi South 8.1 mph - N/A   Clear
10:35 PM 78.8 °F - 71.6 °F 78% 29.82 in 10.0 mi South 10.4 mph 16.1 mph N/A   Clear
11:35 PM 78.8 °F - 71.6 °F 78% 29.83 in 10.0 mi South 9.2 mph 16.1 mph N/A   Clear
11:55 PM 78.8 °F - 71.6 °F 78% 29.83 in 10.0 mi South 9.2 mph - N/A   Clear